www.pogodaiklimat.ru

Погода и климат >> Архив погоды >> Того >> Атакпаме


ПОГОДА в Атакпаме

  • Прогноз погоды в Атакпаме
  • Монитор погоды в Атакпаме

АРХИВ ПОГОДЫ в Атакпаме

Время (UTC), дата Ветер
(напр.,м/с)
 
Видим.   Явления Облачность Т
(С)
Тd
(С)
f
(%)
Тe
(С)
Тes
(С)
Комфортность P
(гПа)
Po
(гПа)
Тmin
(С)
Tmax
(С)
R
(мм)
R24
(мм)
S
(см)
12 15.08 З 1 10 км {туман} 9/4 480 м
[Cu med, cong Ci sp]
+29.0 +21.0 62 +36 +49 очень
душно
1014.9 968.9
18 15.08 ЮЗ 1 10 км 9/3 400 м
[Cu med, cong Ac As]
+27.5 +21.8 71 +35 +35 очень
душно
1012.5 966.8 +30.0
00 16.08 З 2 10 км 9/0
[Ci sp]
+23.0 +22.0 94 +31 +31 очень
душно
1013.9 967.9
06 16.08 З 1 600 м туман 9/9 300 м
[Sc]
+21.5 +20.8 96 +27 +27 душно 1014.4 968.2 +21.0
12 16.08 Ю 1 10 км {туман} 9/4 480 м
[Cu med, cong Ci sp]
+28.6 +22.8 71 +38 +51 опасность
солнечного
удара
1013.3 967.3
18 16.08 З 1 8000 м слаб. дождь 9/6 400 м
[Cu Sc Ci sp]
+25.4 +22.6 85 +33 +33 очень
душно
1011.0 964.8 +30.2 0.1
00 17.08 ЮЗ 1 10 км {гроза, дождь} 9/6 400 м
[Sc Ci sp]
+23.0 +21.5 91 +31 +31 очень
душно
1013.4 967.4 42
06 17.08 Ю 1 200 м туман 9/9 300 м
[Sc]
+22.0 +21.3 96 +29 +29 очень
душно
1013.4 967.0 +20.9 42
12 17.08 В 2 10 км {туман} 9/8 400 м
[Cu med, cong Ci sp]
+28.2 +23.2 74 +38 +42 очень
душно
1013.1 967.0
18 17.08 З 2 10 км {дождь} 9/4 400 м
[Cu med, cong Ci sp]
+23.6 +22.4 93 +31 +31 очень
душно
1011.0 964.7 +29.8 18
00 18.08 З 1 7000 м 9/5 400 м
[Sc Ci sp]
+22.6 +21.7 95 +30 +30 очень
душно
1012.1 966.1
06 18.08 ЮЗ 2 300 м туман 9/9 300 м
[Sc]
+22.0 +21.6 98 +29 +29 очень
душно
1012.5 966.1 +21.5 18
12 18.08 Ю 2 10 км {туман} 9/3 480 м
[Cu med, cong Ac und Ci sp]
+27.0 +23.4 81 +37 +45 очень
душно
1013.9 967.7
18 18.08 З 1 10 км {дождь} 9/1 480 м
[Cu med, cong Ac As Ci sp]
+24.5 +21.5 83 +31 +31 очень
душно
1010.6 964.4 +29.0 0.3
00 19.08 З 2 10 км 9/0 300 м
[Ac lent Ci sp]
+23.1 +22.1 94 +31 +31 очень
душно
1012.5 966.4
06 19.08 ЮЗ 3 500 м туман 9/9 300 м
[Sc]
+22.0 +21.4 96 +29 +29 очень
душно
1012.3 966.0 +21.6 0.3
12 19.08 ЮЗ 2 10 км {туман} 9/4 400 м
[Cu med, cong Ac As]
+27.5 +23.2 77 +37 +42 очень
душно
1013.4 967.3
18 19.08 З 2 10 км {дождь} 9/1 400 м
[Cu med, cong Ac As]
+26.0 +22.8 83 +35 +35 очень
душно
1011.4 965.2 +28.9 1
00 20.08 З 2 8000 м 9/9 400 м
[Sc]
+22.0 +21.0 94 +28 +28 душно 1013.2 967.0
06 20.08 Ю 2 200 м туман 9/9 300 м
[Sc]
+22.5 +21.8 96 +30 +30 очень
душно
1012.6 966.4 +21.5 1
12 20.08 З 1 10 км {дождь, туман} 9/5 480 м
[Cu med, cong Ci sp]
+27.5 +23.2 77 +37 +48 очень
душно
1013.8 967.6 1
18 20.08 З 1 10 км 9/1 400 м
[Cu med, cong Ci sp]
+27.0 +22.6 77 +36 +36 очень
душно
1011.7 965.6 +29.0 1
00 21.08 З 2 8000 м 9/9 400 м
[Sc]
+23.5 +22.0 91 +30 +30 очень
душно
1014.3 968.2
06 21.08 З 2 300 м туман 9/9 300 м
[Sc]
+22.5 +21.4 94 +30 +30 очень
душно
1014.0 967.8 +22.0 1
12 21.08 Ю 1 10 км {туман} 9/6 480 м
[Cu med, cong Ci sp]
+29.0 +22.5 68 +38 +47 очень
душно
1013.9 968.0
18 21.08 В 1 10 км {гроза, дождь} 9/1 400 м
[Cu med, cong Ac As]
+26.7 +23.7 84 +37 +37 очень
душно
1012.2 966.0 +30.4 26
00 22.08 З 1 8000 м 9/5 400 м
[Sc Ci sp]
+23.6 +22.0 91 +30 +30 очень
душно
1012.9 967.1
06 22.08 З 2 300 м туман 9/9 300 м
[Sc]
+22.5 +22.0 97 +30 +30 очень
душно
1013.4 967.2 +21.8 26

 

Местоположение метеостанции Атакпаме (Того): широта 7.58 долгота 1.12 высота над уровнем моря 402 м.

В архиве по умолчанию представлена погода в Атакпаме за последнюю неделю. Архивные данные за месяц целиком и за предыдущие месяцы, начиная с января 2011 года, Вы можете получить, выбрав интересующий диапазон дат из раскрывающегося списка и нажав кнопку "Ввод!".


*Определитесь, кто Вы:
робот инопланетянин человек

Внимание! Время в таблицах - всемирное. Для получения местного времени необходимо прибавить поправку, которая равна 0 ч.

Смотрите также архив погоды в соседних городах и на ближайших метеорологических станциях:

Погода в Боиконе (Бенин) (114 км)
Погода в Таблигбо (Того) (119 км)
Погода в Кет-Крачи (Гана) (130 км)
Погода в Хо (Гана) (130 км)
Погода в Сокоде (Того) (156 км)
Погода в Саве (Бенин) (157 км)
Погода в Ломе (Того) (157 км)
Погода в Акатзи (Гана) (166 км)
Погода в Котону (Бенин) (195 км)
Погода в Акюсе (Гана) (198 км)

Пояснения к столбцам:

Ветер - указаны скорость ветра в м/с - средняя за 10 мин, порывы в срок и между сроками (в фигурных скобках) и направление, откуда дует ветер: С - северный, СВ - северо-восточный, В - восточный, ЮВ - юго-восточный, Ю - южный, ЮЗ - юго-западный, З - западный, СЗ - северо-западный.
Видимость - горизонтальная дальность видимости в метрах или километрах. При видимости от 1 до 10 км при отсутствии осадков обычно наблюдается дымка, при ухудшении видимости до 1 км и менее - туман. В сухую погоду видимость может ухудшаться дымом, пылью или мглою.
Явления - указаны атмосферные явления, наблюдавшиеся в срок или в последний час перед сроком; фигурными скобками обозначены явления, наблюдавшиеся между сроками (за 1-3 часа до срока); квадратными скобками обозначены град или гололедные отложения с указанием их диаметра в мм.
Облачность - указаны через наклонную черту общая и нижняя облачность в баллах и высота нижней границы облаков в метрах; квадратными скобками обозначены формы облаков: Ci - перистые, Cs - перисто-слоистые, Cc - перисто-кучевые, Ac - высококучевые, As - высокослоистые, Sc - слоисто-кучевые, Ns - слоисто-дождевые, Cu - кучевые, Cb - кучево-дождевые. Подробнее классификацию облаков см. в Атласе облаков (PDF).
T - Температура воздуха - температура, измеренная на высоте 2 м над землей.
Td - Температура точки росы - температура, при понижении до которой содержащийся в воздухе водяной пар достигнет насыщения.
f - Относительная влажность воздуха - влажноcть воздуха, измеренная на высоте 2 м над землей.
Te - Эффективная температура - температура, которую ощущает одетый по сезону человек в тени. Характеристика душности погоды. При расчете учитывается влияние влажности воздуха и скорости ветра на теплоощущения человека.
Tes - Эффективная температура на солнце - температура, которую ощущает человек, с поправкой на солнечный нагрев. Характеристика знойности погоды. Зависит от высоты солнца над горизонтом, облачности и скорости ветра. Ночью, в пасмурную погоду, а также при ветре 12 м/с и более поправка равна нулю.
P - Атмосферное давление - приведенное к уровню моря атмосферное давление.
Po - Атмосферное давление - измеренное на уровне метеостанции атмосферное давление.
Tmin - Минимальная температура - минимум температуры воздуха на высоте 2 м над землей.
Tmax - Максимальная температура - максимум температуры воздуха на высоте 2 м над землей.
R - Количество осадков - Количество выпавших осадков за период времени, мм. При наведении курсора мыши на число - период времени, за который выпало указанное количество осадков.
R24 - Количество осадков - Количество выпавших осадков за 24 часа, мм.
S - Снежный покров - Высота снежного покрова, см. При наведении курсора мыши на число - состояние снежного покрова и степень покрытия местности в баллах.